Dubuque, IA

5:34 AM CST on November 20, 2019 (GMT -0600)
Dubuque Regional

Weather History for KDBQ - September, 2019

Change the Weather History Date:

Monday, September 23, 2019

  Actual Average Record
Temperature  
Mean Temperature 62 °F 59 °F  
Max Temperature 73 °F 70 °F 91 °F (1891)
Min Temperature 50 °F 48 °F 31 °F (1974)
Degree Days  
Heating Degree Days 4 7  
Month to date heating degree days 28 92  
Since 1 July heating degree days 37 119  
Cooling Degree Days 0 1  
Month to date cooling degree days 81 55  
Year to date cooling degree days 654 631  
Growing Degree Days 12 (Base 50)    
Moisture  
Dew Point 53 °F    
Average Humidity 88    
Maximum Humidity 100    
Minimum Humidity 51    
Precipitation  
Precipitation 0.00 in 0.12 in 1.57 in (1945)
Month to date precipitation 12.12 2.72  
Year to date precipitation 43.25 28.70  
Snow  
Snow 0.00 in 0.00 in - ()
Month to date snowfall 0.0 0.0  
Since 1 July snowfall 0.0 0.0  
Since 1 September snowfall 0.0 0.0  
Snow Depth 0.00 in    
Sea Level Pressure  
Sea Level Pressure 30.02 in    
Wind  
Wind Speed 5 mph ()    
Max Wind Speed 15 mph    
Max Gust Speed 23 mph    
Visibility 6.3 miles    
Events Fog    
T = Trace of Precipitation, MM = Missing Value Source: Averaged Metar Reports

Daily Weather History Graph

Daily Weather History Graph

Search for Another Location

Airport or City:

Astronomy

Sep. 23, 2019 Rise Set
Actual Time 6:51 AM CDT 6:58 PM CDT
Civil Twilight 6:23 AM CDT 7:26 PM CDT
Nautical Twilight 5:50 AM CDT 7:59 PM CDT
Astronomical Twilight 5:16 AM CDT 8:32 PM CDT
Moon 12:26 AM CDT (9/23) 3:59 PM CDT (9/23)
Length of Visible Light 13h 03m
Length of Day
12h 07m
Waning Crescent, 33% of the Moon is Illuminated
Sep 23
Waning Crescent
Sep 28
New
Oct 5
First Quarter
Oct 13
Full
Oct 21
Last Quarter

Hourly Weather History & Observations

Time (CDT) Temp. Dew Point Humidity Pressure Visibility Wind Dir Wind Speed Gust Speed Precip Events Conditions
12:53 AM 55.9 °F 55.9 °F 100% 29.94 in 10.0 mi WNW 6.9 mph - N/A   Clear
1:37 AM 55.9 °F 55.9 °F 100% 29.95 in 10.0 mi NW 6.9 mph - N/A   Partly Cloudy
1:53 AM 55.9 °F 55.0 °F 97% 29.96 in 10.0 mi NW 8.1 mph - N/A   Clear
2:53 AM 54.0 °F 54.0 °F 100% 29.97 in 10.0 mi WNW 5.8 mph - N/A   Clear
3:53 AM 53.1 °F 53.1 °F 100% 29.99 in 9.0 mi West 4.6 mph - N/A   Clear
4:18 AM 52.0 °F 52.0 °F 100% 29.99 in 2.5 mi West 3.5 mph - N/A   Partly Cloudy
4:21 AM 52.0 °F 52.0 °F 100% 29.99 in 0.8 mi West 3.5 mph - N/A   Mist
4:31 AM 51.1 °F 51.1 °F 100% 29.99 in 0.2 mi West 3.5 mph - N/A Fog Fog
4:44 AM 51.1 °F 51.1 °F 100% 29.99 in 0.8 mi WNW 4.6 mph - N/A   Mist
4:51 AM 51.8 °F 51.8 °F 100% 29.99 in 1.2 mi WNW 5.8 mph - N/A   Scattered Clouds
4:53 AM 51.1 °F 51.1 °F 100% 29.99 in 1.8 mi WNW 5.8 mph - N/A   Scattered Clouds
4:55 AM 51.1 °F 51.1 °F 100% 29.99 in 4.0 mi WNW 5.8 mph - N/A   Partly Cloudy
5:06 AM 50.0 °F 50.0 °F 100% 30.00 in 1.2 mi Calm Calm - N/A   Partly Cloudy
5:08 AM 50.0 °F 50.0 °F 100% 30.00 in 0.8 mi Calm Calm - N/A   Mist
5:18 AM 50.0 °F 50.0 °F 100% 30.00 in 0.2 mi SW 4.6 mph - N/A Fog Fog
5:53 AM 51.1 °F 51.1 °F 100% 30.01 in 0.2 mi SW 4.6 mph - N/A Fog Fog
6:53 AM 50.0 °F 50.0 °F 100% 30.03 in 0.2 mi SSW 5.8 mph - N/A Fog Fog
7:36 AM 51.1 °F 51.1 °F 100% 30.04 in 0.5 mi SSW 5.8 mph - N/A Fog Fog
7:44 AM 51.1 °F 51.1 °F 100% 30.04 in 2.0 mi SW 5.8 mph - N/A   Overcast
7:51 AM 51.8 °F 51.8 °F 100% 30.04 in 4.0 mi SW 6.9 mph - N/A   Mostly Cloudy
7:53 AM 51.1 °F 51.1 °F 100% 30.04 in 6.0 mi SW 6.9 mph - N/A   Mostly Cloudy
8:00 AM 52.0 °F 52.0 °F 100% 30.04 in 9.0 mi SW 6.9 mph - N/A   Scattered Clouds
8:53 AM 54.0 °F 54.0 °F 100% 30.06 in 10.0 mi WSW 6.9 mph - N/A   Clear
9:53 AM 61.0 °F 55.0 °F 81% 30.07 in 10.0 mi West 11.5 mph - N/A   Clear
10:53 AM 64.9 °F 55.9 °F 73% 30.08 in 10.0 mi WNW 9.2 mph - N/A   Clear
11:53 AM 69.1 °F 57.0 °F 65% 30.07 in 10.0 mi West 9.2 mph - N/A   Clear
12:53 PM 71.1 °F 57.0 °F 61% 30.07 in 10.0 mi West 10.4 mph 19.6 mph N/A   Partly Cloudy
1:53 PM 72.0 °F 55.0 °F 55% 30.05 in 10.0 mi West 10.4 mph - N/A   Partly Cloudy
2:53 PM 72.0 °F 53.1 °F 51% 30.04 in 10.0 mi West 10.4 mph - N/A   Scattered Clouds
3:53 PM 72.0 °F 53.1 °F 51% 30.03 in 10.0 mi West 12.7 mph - N/A   Scattered Clouds
4:53 PM 72.0 °F 53.1 °F 51% 30.02 in 10.0 mi West 9.2 mph - N/A   Clear
5:53 PM 71.1 °F 54.0 °F 55% 30.02 in 10.0 mi West 6.9 mph - N/A   Clear
7:53 PM 63.0 °F 55.9 °F 78% 30.03 in 10.0 mi Calm Calm - N/A   Scattered Clouds
8:53 PM 61.0 °F 55.9 °F 83% 30.03 in 10.0 mi SSW 4.6 mph - N/A   Clear
9:53 PM 59.0 °F 55.9 °F 90% 30.03 in 10.0 mi Calm Calm - N/A   Clear
10:53 PM 59.0 °F 55.9 °F 90% 30.02 in 10.0 mi Calm Calm - N/A   Clear
11:53 PM 57.9 °F 55.0 °F 90% 30.01 in 10.0 mi South 4.6 mph - N/A   Partly Cloudy